Weather History for Columbia Owens, SC

Change the Weather History Date:

Wednesday, November 7, 2012

  Actual Average Record
Temperature  
Mean Temperature 47 °F 58 °F  
Max Temperature 55 °F 70 °F 81 °F (2005)
Min Temperature 38 °F 47 °F 33 °F (2010)
Degree Days  
Heating Degree Days 18 7  
Month to date heating degree days 75 47  
Since 1 July heating degree days 149 136  
Cooling Degree Days 0 1  
Month to date cooling degree days 0 7  
Year to date cooling degree days 2515 2249  
Moisture  
Dew Point 35 °F    
Average Humidity 72    
Maximum Humidity 93    
Minimum Humidity 46    
Precipitation  
Precipitation 0.00 in 0.10 in 0.26 in (2006)
Month to date precipitation 0.10 0.63  
Year to date precipitation 38.23 39.84  
Sea Level Pressure  
Sea Level Pressure 29.94 in    
Wind  
Wind Speed 2 mph (WNW)    
Max Wind Speed 10 mph    
Max Gust Speed 18 mph    
Visibility 9 miles    
Events      
T = Trace of Precipitation, MM = Missing Value Source: NWS Daily Summary

Daily Weather History Graph

Daily Weather History Graph

Search for Another Location

Airport:

Trip Planner

Search our weather history database for the weather conditions in past years. The results will help you decide how hot, cold, wet, or windy it might be!

Date:

Astronomy

Nov. 07, 2012 Rise Set
Actual Time 6:49 AM EST 5:25 PM EST
Civil Twilight 6:23 AM EST 5:51 PM EST
Nautical Twilight 5:53 AM EST 6:21 PM EST
Astronomical Twilight 5:23 AM EST 6:50 PM EST
Moon 12:00 AM EST (11/7) 1:16 PM EST (11/7)
Length of Visible Light 11h 28m
Length of Day
10h 36m
Last Quarter, 43% of the Moon is Illuminated
Nov 7
Last Quarter
Nov 13
New
Nov 20
First Quarter
Nov 28
Full
Dec 6
Last Quarter

Hourly Weather History & Observations

Time (EST) Temp. Windchill Dew Point Humidity Pressure Visibility Wind Dir Wind Speed Gust Speed Precip Events Conditions
12:53 AM 37.9 °F - 33.1 °F 83% 29.95 in 10.0 mi Calm Calm - N/A   Clear
1:53 AM 39.0 °F - 33.1 °F 79% 29.96 in 10.0 mi Calm Calm - N/A   Clear
2:53 AM 39.0 °F - 33.1 °F 79% 29.94 in 10.0 mi Calm Calm - N/A   Clear
3:53 AM 39.0 °F - 32.0 °F 76% 29.93 in 10.0 mi Calm Calm - N/A   Clear
4:53 AM 37.9 °F - 32.0 °F 79% 29.94 in 10.0 mi Calm Calm - N/A   Scattered Clouds
5:53 AM 39.0 °F - 32.0 °F 76% 29.93 in 10.0 mi Calm Calm - N/A   Overcast
7:53 AM 41.0 °F 39.0 °F 33.1 °F 73% 29.96 in 10.0 mi Variable 3.5 mph - N/A   Overcast
8:53 AM 43.0 °F 41.3 °F 33.1 °F 68% 29.96 in 10.0 mi Variable 3.5 mph - N/A   Overcast
9:53 AM 46.9 °F - 33.1 °F 59% 29.96 in 10.0 mi Calm Calm - N/A   Overcast
10:53 AM 48.9 °F - 33.1 °F 54% 29.96 in 10.0 mi Variable 4.6 mph - N/A   Mostly Cloudy
11:53 AM 52.0 °F - 33.1 °F 49% 29.93 in 10.0 mi West 6.9 mph - N/A   Scattered Clouds
12:53 PM 53.1 °F - 33.1 °F 47% 29.90 in 10.0 mi NNW 3.5 mph - N/A   Overcast
1:53 PM 53.1 °F - 34.0 °F 48% 29.88 in 10.0 mi WSW 5.8 mph - N/A   Overcast
2:53 PM 53.1 °F - 36.0 °F 52% 29.88 in 10.0 mi West 6.9 mph - N/A   Overcast
3:53 PM 52.0 °F - 37.9 °F 59% 29.89 in 10.0 mi WNW 8.1 mph - N/A   Overcast
4:53 PM 51.1 °F - 39.9 °F 66% 29.90 in 10.0 mi NW 6.9 mph - N/A   Clear
6:53 PM 45.0 °F - 39.9 °F 82% 29.94 in 10.0 mi Calm Calm - N/A   Clear
7:53 PM 44.1 °F - 39.9 °F 85% 29.95 in 9.0 mi Calm Calm - N/A   Clear
8:53 PM 42.1 °F - 39.0 °F 89% 29.98 in 8.0 mi Calm Calm - N/A   Clear
9:53 PM 41.0 °F - 39.0 °F 93% 29.99 in 7.0 mi Calm Calm - N/A   Clear
10:53 PM 39.9 °F - 37.9 °F 93% 29.99 in 6.0 mi Calm Calm - N/A   Clear
11:53 PM 39.0 °F - 37.0 °F 93% 29.99 in 6.0 mi Calm Calm - N/A   Clear